Location: Владивосток
(43.1151°N, 131.8856°E)
Time: 17:20:34
(UTC+10:00)

Quikscat - Visible Passes

Search period start: 22 July 2024 00:00
Search period end: 01 August 2024 00:00
Orbit: 655 x 792 km, 98.4° (Epoch: 21 July)

Date Brightness Start Highest point End Pass type
(mag) Time Alt. Az. Time Alt. Az. Time Alt. Az.
22 Jul 7.8 00:22:27 10° NNW 00:25:54 18° WNW 00:29:16 10° WSW visible
22 Jul 6.8 21:55:19 10° NE 21:59:10 21° E 22:01:14 17° SE visible
22 Jul 6.3 23:32:40 10° N 23:37:34 47° WNW 23:40:33 21° SW visible
23 Jul 5.5 22:43:47 10° NNE 22:48:51 61° E 22:51:05 31° S visible
24 Jul 7.8 00:23:04 10° NNW 00:26:27 18° WNW 00:29:45 10° WSW visible
24 Jul 6.8 21:55:53 10° NE 21:59:44 21° E 22:01:36 17° ESE visible
24 Jul 6.3 23:33:16 10° N 23:38:07 46° WNW 23:40:55 23° SW visible
25 Jul 5.4 22:44:22 10° NNE 22:49:24 62° E 22:51:26 34° SSE visible
26 Jul 7.8 00:23:41 10° NNW 00:27:00 18° WNW 00:30:14 10° WSW visible
26 Jul 6.7 21:56:28 10° NE 22:00:16 21° E 22:01:57 18° ESE visible
26 Jul 6.3 23:33:51 10° N 23:38:39 46° WNW 23:41:16 24° SW visible
27 Jul 5.4 22:44:57 10° NNE 22:49:56 62° E 22:51:47 36° SSE visible
28 Jul 7.9 00:24:17 10° NNW 00:27:32 17° WNW 00:30:41 10° W visible
28 Jul 6.7 21:57:02 10° NE 22:00:49 21° E 22:02:16 19° ESE visible
28 Jul 6.3 23:34:25 10° N 23:39:12 45° WNW 23:41:35 25° SW visible
29 Jul 5.4 22:45:30 10° NNE 22:50:28 63° E 22:52:05 40° SSE visible
30 Jul 7.9 00:24:53 10° NNW 00:28:03 17° WNW 00:31:08 10° W visible
30 Jul 6.7 21:57:35 10° NE 22:01:21 21° E 22:02:35 19° ESE visible
30 Jul 6.3 23:34:59 10° N 23:39:43 44° WNW 23:41:54 27° SW visible
31 Jul 5.3 22:46:04 10° NNE 22:50:59 63° E 22:52:23 43° SSE visible
